Printer-friendly version

IAU Minor Planet Center

Minor Planet Center

MPEC 2007-W32 : 2007 WW3

The following Minor Planet Electronic Circular may be linked-to from your own Web pages, but must not otherwise be redistributed electronically.


Read MPEC 2007-W31 Read MPEC 2007-W33


M.P.E.C. 2007-W32                                Issued 2007 Nov. 19, 14:12 UT

     The Minor Planet Electronic Circulars contain information on unusual
         minor planets and routine data on comets.  They are published
   on behalf of Commission 20 of the International Astronomical Union by the
          Minor Planet Center, Smithsonian Astrophysical Observatory,
                          Cambridge, MA 02138, U.S.A.

             Prepared using the Tamkin Foundation Computer Network

                              MPC@CFA.HARVARD.EDU
          URL http://www.cfa.harvard.edu/iau/mpc.html  ISSN 1523-6714

                                   2007 WW3

Observations:
     K07W03W* C2007 11 19.35117 04 45 24.08 +29 13 12.9          21.2 V EW032G96
     K07W03W  C2007 11 19.35683 04 45 25.16 +29 13 30.6          20.8 V EW032G96
     K07W03W  C2007 11 19.36249 04 45 26.38 +29 13 49.4          20.9 V EW032G96
     K07W03W  C2007 11 19.36817 04 45 27.46 +29 14 07.9          20.7 V EW032G96
     K07W03W  C2007 11 19.40285 04 45 34.39 +29 15 59.7          20.7 V EW032G96
     K07W03W  C2007 11 19.40752 04 45 35.32 +29 16 14.7          20.8 V EW032G96
     K07W03W  C2007 11 19.41221 04 45 36.29 +29 16 29.5          20.5 V EW032G96
     K07W03W  C2007 11 19.41689 04 45 37.13 +29 16 44.7          20.5 V EW032G96
     K07W03W  C2007 11 19.44118 04 45 42.15 +29 18 01.5          20.8 V EW032G96
     K07W03W  C2007 11 19.44911 04 45 43.77 +29 18 27.0          20.8 V EW032G96
     K07W03W HC2007 11 19.45284 04 45 44.50 +29 18 38.3                 EW032291
     K07W03W  C2007 11 19.45708 04 45 45.36 +29 18 52.6          20.6 V EW032G96
     K07W03W HC2007 11 19.46125 04 45 46.28 +29 19 04.6                 EW032291
     K07W03W  C2007 11 19.46501 04 45 47.01 +29 19 16.7          20.7 V EW032G96

Observer details:
291 LPL/Spacewatch II.  Observer R. S. McMillan.  1.8-m f/2.7 reflector + CCD.
G96 Mt. Lemmon Survey.  Observer A. D. Grauer.  Measurers E. C. Beshore,
    A. Boattini, G. J. Garradd, A. R. Gibbs, A. D. Grauer, R. E. Hill,
    R. A. Kowalski, S. M. Larson, R. H. McNaught.  1.5-m reflector + CCD.

Orbital elements:
2007 WW3                                                 Earth MOID = 0.1004 AU
Epoch 2007 Oct. 27.0 TT = JDT 2454400.5                 MPC
M 359.40176              (2000.0)            P               Q
n   0.17893821     Peri.  345.66111     +0.79963499     -0.59404197
a   3.1188943      Node    51.12627     +0.56144212     +0.68779172
e   0.6507048      Incl.    6.47083     +0.21299444     +0.41720102
P   5.51           H   23.9           G   0.15           U   9
Residuals in seconds of arc
071119 G96  0.2+  0.2+    071119 G96  0.2-  0.2+    071119 291  0.5-  0.4-
071119 G96  0.5-  0.5-    071119 G96  0.2+  0.1+    071119 G96  0.1-  1.3+
071119 G96  0.7+  0.1-    071119 G96  1.1-  0.4+    071119 291  0.4+  0.5-
071119 G96  0.0   0.1-    071119 G96  0.3+  0.2+    071119 G96  0.2+  0.6+
071119 G96  0.1-  0.2+    071119 G96  0.4+  0.8+

Ephemeris:
2007 WW3                 a,e,i = 3.12, 0.65, 6                   q = 1.0894
Date    TT    R. A. (2000) Decl.     Delta      r     Elong.  Phase     V
2007 11 16    04 31.83   +25 49.8    0.128    1.112   162.5    15.5    20.5
2007 11 17    04 36.09   +26 55.0    0.131    1.114   162.2    15.8    20.6
2007 11 18    04 40.17   +27 56.4    0.134    1.117   161.9    16.0    20.6
2007 11 19    04 44.07   +28 53.9    0.138    1.120   161.6    16.1    20.7
2007 11 20    04 47.80   +29 47.8    0.141    1.123   161.4    16.3    20.8
2007 11 21    04 51.35   +30 38.2    0.145    1.126   161.3    16.4    20.8
2007 11 22    04 54.73   +31 25.4    0.149    1.130   161.1    16.4    20.9
2007 11 23    04 57.95   +32 09.4    0.153    1.133   161.0    16.5    21.0
2007 11 24    05 01.00   +32 50.5    0.157    1.137   161.0    16.4    21.0
2007 11 25    05 03.90   +33 28.8    0.161    1.141   160.9    16.4    21.1
2007 11 26    05 06.64   +34 04.4    0.166    1.145   161.0    16.3    21.2
2007 11 27    05 09.23   +34 37.6    0.170    1.149   161.0    16.2    21.2
2007 11 28    05 11.68   +35 08.3    0.175    1.153   161.1    16.1    21.3
2007 11 29    05 13.99   +35 36.9    0.179    1.157   161.1    16.0    21.4
2007 11 30    05 16.16   +36 03.4    0.184    1.162   161.3    15.8    21.4
2007 12 01    05 18.21   +36 27.9    0.189    1.166   161.4    15.6    21.5
2007 12 02    05 20.13   +36 50.6    0.194    1.171   161.5    15.5    21.5
2007 12 03    05 21.94   +37 11.5    0.198    1.176   161.7    15.3    21.6
2007 12 04    05 23.64   +37 30.7    0.204    1.181   161.9    15.0    21.6
2007 12 05    05 25.23   +37 48.4    0.209    1.186   162.1    14.8    21.7
2007 12 06    05 26.73   +38 04.6    0.214    1.191   162.2    14.6    21.8

Timothy B. Spahr             (C) Copyright 2007 MPC           M.P.E.C. 2007-W32

Read MPEC 2007-W31 Read MPEC 2007-W33


Our Web policy. Index to the CBAT/MPC/ICQ pages.


Valid HTML 4.01!